Location: ????????
(48.7438°N, 37.9410°E)
Time: 13:21:45
(UTC+00:00)

Daily predictions for brighter satellites

Satellite Brightness Start Highest point End
(mag) Time Altitude Azimuth Time Altitude Azimuth Time Altitude Azimuth
Exosat Rocket 3.8 16:51:39 10° NNW 16:58:13 82° ENE 17:03:21 10° SSE
Okean-O 4.4 16:54:56 10° SSW 16:59:00 36° W 17:03:07 10° NNW
Cosmos 2058 Rocket 3.0 16:55:32 10° S 16:59:53 75° E 17:04:15 10° NNE
NOSS 3-4 (A) 4.4 16:54:35 10° WSW 17:00:22 53° NW 17:06:41 10° NE
NOSS 3-4 (C) 4.4 16:54:41 10° WSW 17:00:28 54° NW 17:06:47 10° NE
Cosmos 2237 Rocket 2.6 16:55:15 10° NNW 17:00:46 51° NE 17:06:14 10° SE
RESURS DK-1 2.3 16:57:20 10° SSW 17:01:27 84° ESE 17:05:37 10° NNE
Cosmos 405 Rocket 3.0 17:02:06 10° N 17:06:01 51° ENE 17:09:50 10° SSE
DMSP B5D2-2 4.1 17:01:31 10° NNE 17:06:49 88° ESE 17:12:05 10° SSW
Cosmos 1818 3.6 17:01:38 10° SSW 17:07:03 73° SE 17:12:31 10° NE
Helios 1A Rocket 3.9 17:05:56 10° S 17:09:53 49° W 17:13:55 10° NNW
Cosmos 192 4.5 17:06:20 10° NNW 17:11:17 64° ENE 17:16:11 10° SE
ATLAS 2AS CENTAUR R/B 3.5 17:05:55 10° SW 17:13:50 70° NW 17:21:34 10° NE
CZ-4C R/B 4.1 17:09:14 10° W 17:14:04 33° NNW 17:19:51 10° NE
Cosmos 1092 Rocket 4.3 17:09:55 10° NNW 17:16:10 72° W 17:22:18 10° S
Cosmos 2227 Rocket 3.1 17:12:44 10° SSE 17:17:22 27° ESE 17:22:03 10° NE
Cosmos 1825 2.5 17:15:25 10° NNW 17:19:10 68° W 17:22:55 10° S
Cosmos 2297 Rocket 2.7 17:18:45 10° S 17:23:54 38° ESE 17:29:05 10° NE
Cosmos 2058 3.4 17:23:13 10° NNW 17:27:22 63° W 17:31:28 10° S
Orbus 7S? 3.3 17:28:19 10° WSW 17:31:09 82° NNW 17:36:30 10° NE
Cosmos 1633 3.0 17:28:49 10° N 17:32:16 42° ENE 17:35:09 13° SE
Abrixas rocket 0.3 17:31:00 10° WSW 17:32:34 58° S 17:33:07 31° ESE
Lacrosse 5 rocket 3.3 17:29:18 10° WNW 17:32:53 26° N 17:36:35 10° ENE
Cosmos 2219 3.6 17:27:43 10° S 17:32:55 40° ESE 17:38:07 10° NE
Cosmos 2333 Rocket 4.0 17:29:15 10° NW 17:34:10 30° WSW 17:39:01 10° SSW
FALCON 9 DEB 3.9 17:32:27 10° SSW 17:35:03 25° SE 17:37:09 13° E
Resurs 01 Rocket 1.9 17:31:03 11° SE 17:35:16 52° ENE 17:39:37 10° N
Resurs 1-3 3.6 17:32:47 10° SSE 17:37:09 87° E 17:41:35 10° NNW
FALCON 9 DEB 3.5 17:37:01 10° SSW 17:39:46 32° SE 17:42:10 12° E
Genesis I 3.3 17:35:46 10° NW 17:39:46 71° NE 17:42:47 17° SE
Meteor 1-4 Rocket 4.3 17:42:19 14° E 17:42:39 15° E 17:44:40 10° NE
SJ-6B 3.9 17:39:27 10° S 17:43:00 41° W 17:46:37 10° NNW
Cosmos 1190 Rocket 4.3 17:38:27 10° S 17:43:22 42° ESE 17:48:16 10° NE
ATLAS 3B R/B 3.7 17:36:58 10° NW 17:43:36 46° WSW 17:50:29 10° S
Ariane Rocket 3.2 17:39:47 10° S 17:44:49 72° WSW 17:49:53 10° NNW
Cosmos 2084 Rocket 3.8 17:42:56 10° S 17:46:35 36° ESE 17:50:20 10° NE
Cosmos 614 Rocket 4.1 17:42:11 10° SSW 17:47:19 79° WNW 17:52:27 10° NNE
ERS-2 4.4 17:44:30 10° N 17:47:41 29° WNW 17:50:51 10° SW
Cosmos 2251 Rocket 4.2 17:43:13 10° SW 17:48:31 60° WNW 17:53:48 10° NNE
Terra 3.7 17:46:06 11° E 17:48:37 16° ENE 17:51:32 10° NNE
Cosmos 2279 Rocket 4.0 17:42:50 10° S 17:49:02 86° E 17:55:16 10° N
Cosmos 389 Rocket 2.6 17:46:07 10° SSW 17:49:39 79° WNW 17:53:14 10° N
FALCON 9 DEB 3.1 17:48:56 10° SW 17:51:50 43° SE 17:53:57 16° E
USA 215 3.6 17:46:56 12° ESE 17:52:54 64° NNE 17:59:22 10° NW
Cosmos 2344 3.7 17:48:30 10° SW 17:55:56 77° NW 18:04:06 10° NE
SPOT 1/Viking Rocket 3.9 17:53:02 18° SE 17:56:44 49° ENE 18:01:46 10° N
Meteor 2-21 Rocket 4.5 17:50:59 10° N 17:57:02 65° ENE 18:02:08 15° SSE
Cosmos 1980 4.1 17:51:25 10° NNW 17:57:03 64° WSW 18:02:19 12° SSE
FALCON 9 DEB 3.9 17:54:00 10° W 17:57:22 51° NNW 18:00:44 10° ENE
SL-16 R/B 2.6 17:52:11 10° NNW 17:57:46 52° NE 18:01:32 20° SE
SPOT 5 4.2 17:55:41 17° ESE 17:58:04 25° ENE 18:02:00 10° N
Cosmos 676 Rocket 4.5 17:57:07 10° S 18:01:47 37° ESE 18:06:32 10° NE
Cosmos-2242 3.1 17:59:03 12° S 18:02:53 56° E 18:07:06 10° NNE
Cosmos 2151 3.0 17:59:49 10° N 18:04:10 89° W 18:07:34 16° S
SPOT 3 Rocket 3.5 18:00:01 13° SSE 18:04:36 90° SW 18:09:49 10° NNW
COSMOS 2455 3.3 18:00:24 10° S 18:05:49 37° ESE 18:11:17 10° NE
Meteor 2-16 Rocket 4.5 18:01:18 10° N 18:07:28 66° ENE 18:12:03 18° SSE
BREEZE-M DEB (TANK) 1.5 18:07:07 10° WSW 18:10:24 49° SSE 18:10:38 46° SE
Cosmos 2266 Rocket 4.0 18:06:27 10° N 18:12:52 82° E 18:17:59 16° SSE
FALCON 9 DEB 2.8 18:10:32 10° SW 18:13:31 54° SSE 18:14:28 36° E
ERS-1 Rocket 3.7 18:13:54 24° ESE 18:16:16 38° ENE 18:20:53 10° N
SL-4 R/B 2.3 18:12:39 10° SW 18:16:57 56° SSE 18:21:33 10° ENE
Landsat 7 3.9 18:16:21 19° S 18:19:48 80° WSW 18:24:36 10° NNW
IGS 5A 3.7 18:17:54 19° S 18:20:51 66° W 18:24:59 10° NNW
OBJECT-B 3.9 18:24:23 10° WSW 18:25:41 12° W 18:27:00 10° WNW
Cosmos 407 Rocket 3.8 18:22:28 10° SSW 18:27:34 67° WNW 18:32:45 10° NNE
Cosmos 2221 3.7 18:28:17 25° E 18:28:20 25° E 18:31:51 10° NNE
ARIANE 5 R/B 2.6 18:26:32 33° SE 18:28:24 64° ENE 18:32:45 10° N
USA 245 2.7 18:28:32 43° SSE 18:29:34 83° ENE 18:32:34 10° NNW
Cosmos 1862 4.3 18:26:08 10° N 18:29:39 29° ENE 18:30:11 28° E
Meteor 2-3 Rocket 4.0 18:25:27 10° NNW 18:31:11 70° W 18:35:28 18° S
MetOp-B 4.3 18:27:55 19° S 18:31:46 71° WSW 18:37:09 10° NNW
Meteor 1-27 4.2 18:31:55 13° S 18:37:03 82° E 18:42:55 10° NNE
Cosmos 44 Rocket 3.4 18:35:50 10° SSW 18:40:47 55° ESE 18:45:53 10° NE
Cosmos 1140 Rocket 4.0 18:36:00 10° SW 18:41:03 59° WNW 18:46:09 10° NNE
Timation 2 Rocket 4.1 18:36:32 10° SSW 18:43:05 79° WNW 18:49:24 10° NNE
Cosmos 2237 Rocket 3.7 18:39:45 10° NW 18:44:35 30° WSW 18:48:56 12° SSW
Cosmos 1954 Rocket 3.9 18:39:40 10° SSW 18:44:50 85° ESE 18:50:03 10° NNE
CZ-2C R/B 3.9 18:41:21 10° N 18:45:47 70° WNW 18:49:27 15° SSW
JB-3 4.4 18:42:57 10° NNE 18:47:00 56° E 18:47:30 52° SE
USA 229 DEB 4.3 18:40:38 10° NW 18:47:44 56° NE 18:52:09 26° ESE
USA 229 4.3 18:40:44 10° NW 18:47:49 56° NE 18:52:16 25° ESE
Cosmos 1850 Rocket 4.5 18:47:39 36° ESE 18:48:08 37° ESE 18:52:56 10° NE
Meteor 2-15 4.4 18:45:13 30° SSE 18:48:09 60° E 18:54:07 10° NNE
Cosmos 2263 Rocket 3.2 18:53:00 26° E 18:53:00 26° E 18:57:00 10° NE
Aureole 1 Rocket 4.2 18:52:37 33° ESE 18:52:37 33° ESE 18:56:45 10° NE
Spot 2 Rocket 3.6 18:51:56 32° S 18:54:18 73° WSW 18:59:24 10° NNW
Cosmos 1500 Rocket 4.2 18:52:09 10° N 18:56:23 40° ENE 18:56:51 39° E
Cosmos 1766 Rocket 3.9 18:53:19 10° NNW 18:57:36 60° W 18:59:11 35° SSW
CARTOSAT-1 3.6 18:56:21 45° S 18:57:38 77° WSW 19:01:58 10° NNW
Cosmos 2082 3.6 18:55:36 11° SSW 19:01:03 85° ESE 19:06:43 10° NNE
Cosmos 2227 Rocket 2.8 18:55:31 10° SW 19:01:05 57° WNW 19:06:41 10° NNE
Cosmos 1553 Rocket 4.2 19:03:50 40° SE 19:05:25 50° E 19:11:17 10° NNE
NOSS 3-1 (A) 4.2 18:58:32 10° NW 19:05:45 64° NE 19:10:11 30° ESE
Okean 3 Rocket 4.3 19:02:07 10° NNW 19:06:31 50° W 19:08:15 32° SSW
Cosmos 2297 Rocket 3.4 19:02:33 10° WSW 19:07:54 42° NW 19:13:18 10° NNE
H-2A R/B 3.7 19:04:19 10° NNE 19:08:15 53° E 19:08:15 53° E
Cosmos 468 Rocket 4.0 19:05:03 10° NNW 19:10:11 74° WSW 19:11:37 47° S
FALCON 9 DEB 4.4 19:07:38 10° WSW 19:09:23 30° W 19:09:23 30° W
Resurs 01 Rocket 3.9 19:08:51 10° SW 19:12:04 19° W 19:15:19 10° NW
Cosmos 1603 4.1 19:06:50 10° NNW 19:12:27 53° NE 19:14:06 40° ESE
Lacrosse 5 rocket 2.5 19:08:46 10° NW 19:12:52 41° NNE 19:14:22 30° ENE
Cosmos 1869 4.2 19:12:29 28° SW 19:14:11 45° WNW 19:17:59 10° N
Cosmos 841 Rocket 3.6 19:09:57 10° NNW 19:15:07 61° ENE 19:16:10 50° ESE
FALCON 9 DEB 4.4 19:12:25 10° W 19:14:19 32° WNW 19:14:19 32° WNW
Meteor 1-4 Rocket 3.7 19:16:25 33° WSW 19:17:16 40° WNW 19:20:39 10° N
Cosmos 1763 Rocket 3.7 19:18:07 10° NNW 19:23:07 60° WSW 19:24:15 47° SSW
Terra 1.8 19:24:59 62° S 19:25:46 80° WSW 19:30:33 10° NNW
NOSS 3-1 (C) 4.0 19:22:15 10° NW 19:29:40 77° SW 19:32:59 41° SSE
Cosmos 1814 Rocket 4.2 19:25:29 10° NNW 19:30:45 59° ENE 19:31:32 53° E
Cosmos 540 Rocket 3.3 19:26:01 10° NNW 19:31:10 90° E 19:31:52 68° SSE
FALCON 9 DEB 4.4 19:31:24 10° WNW 19:34:31 40° N 19:34:31 40° N
Meteor 2-2 Rocket 4.3 19:32:53 41° SSW 19:35:01 79° WNW 19:40:44 10° N
Cosmos 921 Rocket 3.1 19:31:15 10° NNW 19:35:33 69° NE 19:35:33 69° NE
SPOT 5 3.4 19:34:55 41° SW 19:35:51 47° W 19:40:32 10° NNW
USA 215 3.4 19:34:16 44° S 19:36:00 57° SW 19:42:26 10° WNW
SL-16 R/B 3.5 19:36:45 10° NW 19:41:37 30° WSW 19:43:25 25° SW
Cosmos 1174 4.5 19:39:11 10° NNW 19:43:24 49° NNE 19:43:24 49° NNE
Cosmos 1842 Rocket 4.0 19:43:19 52° WSW 19:43:56 57° WNW 19:48:22 10° N
SL-08 ROCKET BODY 4.5 19:40:21 10° NNW 19:46:23 72° W 19:47:54 51° SSW
COSMOS 2455 3.6 19:45:47 10° WSW 19:51:37 51° NW 19:57:30 10° NNE
Cosmos 1437 Rocket 4.3 19:54:32 28° NE 19:54:32 28° NE 19:56:33 10° NNE
Meteor 1-25 Rocket 4.4 19:48:05 10° N 19:53:46 59° ENE 19:54:24 56° ESE
ERS-1 Rocket 4.2 19:53:53 29° WSW 19:55:06 33° W 19:59:38 10° NNW
SL-4 R/B 2.6 19:52:08 10° W 19:56:41 67° N 19:57:55 46° NE
ATLAS 5 CENTAUR R/B 4.3 19:54:04 10° NNW 19:57:52 21° NNE 20:02:09 10° ENE
Cosmos 2227 4.1 19:58:51 72° SSE 19:59:18 77° ESE 20:05:04 10° NNE
Sich 1 3.4 20:00:57 10° N 20:04:31 60° N 20:04:31 60° N
Cosmos 1805 Rocket 3.8 20:01:02 10° NNW 20:04:50 64° NW 20:04:50 64° NW
Meteor 1-20 Rocket 4.1 19:59:35 10° N 20:05:25 75° ENE 20:05:54 70° ESE
Cosmos 2221 3.8 20:05:05 32° W 20:05:45 34° WNW 20:09:41 10° N
Cosmos 1745 Rocket 4.0 20:01:13 10° NNW 20:07:31 72° W 20:08:45 57° SSW
Cosmos 1943 3.1 20:02:20 10° NNW 20:07:57 69° WSW 20:08:18 67° SW
SeaSat 1 3.1 20:07:52 10° NE 20:11:32 44° ENE 20:11:32 44° ENE
Cosmos 1709 Rocket 3.8 20:06:32 10° N 20:12:47 78° E 20:13:30 68° SE
Cosmos 1570 Rocket 4.1 20:07:33 10° NNW 20:12:47 64° WSW 20:12:50 64° WSW
Iridium 4 Rocket 4.1 20:18:30 46° ENE 20:18:30 46° ENE 20:23:15 10° NNE
Spot 4 3.9 20:21:08 74° NNE 20:21:08 74° NNE 20:25:40 10° NNW
S3M 4.2 20:20:45 51° SW 20:22:18 69° WNW 20:28:43 10° N
Cosmos 883 Rocket 4.3 20:22:08 72° SSE 20:22:49 83° E 20:29:09 10° N
Cosmos 1633 Rocket 3.7 20:21:45 10° N 20:25:08 50° NNE 20:25:08 50° NNE
Cosmos 1606 4.5 20:31:58 29° NW 20:31:58 29° NW 20:34:38 10° N
Cosmos 2263 Rocket 2.6 20:34:38 44° WSW 20:35:59 56° WNW 20:41:29 10° NNE
Cosmos 1666 Rocket 4.2 20:32:17 10° NNW 20:35:51 55° NNW 20:35:51 55° NNW
USA 229 DEB 4.3 20:31:46 10° NW 20:38:44 47° WSW 20:39:35 45° SW
USA 229 4.3 20:31:51 10° NW 20:38:50 48° WSW 20:39:42 46° SW
Cosmos 968 Rocket 3.9 20:42:55 55° ENE 20:42:55 55° ENE 20:47:14 10° NNE
Cosmos 1844 Rocket 3.4 20:49:18 41° ENE 20:49:18 41° ENE 20:53:29 10° NE
COBE Rocket 4.4 20:49:42 51° NE 20:49:42 51° NE 20:53:59 10° N
Cosmos 1782 4.2 20:53:14 37° N 20:53:14 37° N 20:55:45 10° N
Lacrosse 5 rocket 3.2 20:47:53 10° WNW 20:49:58 27° WNW 20:49:58 27° WNW
Thor Agena Rocket 4.4 20:47:52 10° NNE 20:51:46 38° ENE 20:51:46 38° ENE
CZ-4C R/B 4.3 20:49:19 10° NW 20:55:13 32° NNE 21:02:06 10° E
Cosmos 1151 Rocket 4.0 20:57:27 46° N 20:57:27 46° N 21:00:35 10° N
ALOS 2 3.4 20:58:14 49° NNW 20:58:14 49° NNW 21:01:30 10° NNW
Terra 4.4 21:03:52 10° W 21:04:18 11° W 21:05:18 10° WNW
Cosmos 2082 Rocket 4.5 21:05:34 10° N 21:09:30 19° NE 21:13:25 10° E
Cosmos 1833 Rocket 4.3 21:07:07 10° NNW 21:12:03 29° NE 21:14:25 22° E
Cosmos 1486 Rocket 4.1 21:17:09 73° N 21:17:09 73° N 21:22:03 10° NNE
Cosmos 2154 Rocket 4.1 21:12:29 10° N 21:18:50 66° ENE 21:19:23 63° ESE
Meteor 1-5 Rocket 4.2 21:14:04 10° NNW 21:19:29 79° NW 21:19:29 79° NW
NOSS 2-2 (C) 4.4 21:22:18 10° NW 21:27:13 68° W 21:27:13 68° W
Meteor 2-6 Rocket 4.2 21:29:11 75° NNE 21:29:11 75° NNE 21:34:09 10° NNE
Cosmos 2184 Rocket 3.9 21:23:38 10° NNW 21:29:58 76° W 21:30:12 75° WSW
Cosmos 2327 Rocket 4.4 21:24:42 10° N 21:31:01 77° E 21:31:27 73° ESE
SL-4 R/B 4.3 21:32:03 10° WNW 21:33:32 20° WNW 21:33:32 20° WNW
Cosmos 2278 Rocket 3.8 21:37:40 22° E 21:37:40 22° E 21:41:21 10° NE
SJ 16-02 3.6 21:40:24 17° ENE 21:40:24 17° ENE 21:42:17 10° NE
ATLAS 5 CENTAUR R/B 2.8 21:38:17 10° NW 21:43:34 55° NE 21:45:39 37° E
Cosmos 2341 Rocket 4.4 21:38:51 10° N 21:45:06 55° ENE 21:46:08 50° ESE
Cosmos 1295 Rocket 4.3 21:39:30 10° N 21:45:49 85° E 21:46:13 79° SE
USA 305 4.3 21:49:49 35° NE 21:49:49 35° NE 21:52:33 10° ENE
Cosmos 1241 Rocket 4.4 21:48:28 75° SW 21:49:05 88° NW 21:55:45 10° NE
SeaSat 1 4.0 21:45:46 10° NNE 21:50:01 29° NW 21:51:19 26° WNW
Cosmos 2074 Rocket 4.4 21:50:22 10° NNW 21:56:21 48° W 21:56:30 48° W
USA 281 3.0 21:56:17 71° SSE 21:57:05 86° WSW 22:03:44 10° NNW
Cosmos 1844 3.8 21:59:48 66° WNW 22:00:03 67° WNW 22:05:47 10° NNE
COSMOS 2406 3.5 21:56:24 10° NNW 22:02:03 61° ENE 22:02:53 54° E
Cosmos 1503 Rocket 4.3 22:04:26 56° NW 22:04:26 56° NW 22:09:22 10° NNE
USA 306 4.0 22:07:09 43° NNE 22:07:09 43° NNE 22:10:38 10° ENE
Cosmos 962 Rocket 4.3 22:01:16 10° N 22:07:30 86° E 22:07:57 78° SSE
Gbstr 26 Del rocket 3.9 22:11:18 65° ESE 22:11:18 65° ESE 22:16:18 10° ENE
Gblst 52 Del rocket 4.4 22:11:20 67° ESE 22:11:20 67° ESE 22:16:41 10° ENE
Cosmos 1238 Rocket 4.2 22:09:05 10° N 22:15:31 67° ENE 22:16:52 54° SE
Meteor 1-27 Rocket 3.6 22:18:50 77° W 22:18:56 78° WNW 22:24:44 10° N
Nadezhda 1 Rocket 4.2 22:20:14 53° WSW 22:20:57 56° WNW 22:27:15 10° N
Meteor 1-11 Rocket 4.2 22:18:16 10° NNW 22:23:46 49° W 22:23:46 49° W
USA 307 3.9 22:24:49 44° NNW 22:24:55 44° N 22:29:03 10° ENE
Resurs 1-4 Rocket 3.1 22:24:58 10° NNE 22:29:47 35° E 22:30:20 34° ESE
Cosmos 2218 Rocket 4.0 22:23:42 10° N 22:29:54 76° E 22:31:01 60° SE
Cosmos 1844 Rocket 3.8 22:30:56 31° WNW 22:32:12 35° NW 22:37:18 10° NNE
Cosmos 1777 Rocket 3.9 22:32:47 77° NW 22:32:47 77° NW 22:37:54 10° NNE
Cosmos 2366 rocket 3.9 22:29:09 10° N 22:35:20 80° E 22:36:24 62° SSE
Cosmos 1743 4.3 22:32:03 10° NNW 22:34:10 31° NNW 22:34:10 31° NNW
USA 308 4.0 22:37:07 39° NNW 22:37:47 42° N 22:41:54 10° ENE
NOSS 3-4 (A) 4.4 22:31:37 10° NW 22:38:17 54° NE 22:45:43 10° ESE
NOSS 3-4 (C) 4.5 22:31:44 10° NW 22:38:23 54° NE 22:45:49 10° ESE
Okean 1 4.2 22:39:35 48° NE 22:39:35 48° NE 22:42:42 10° NNE
Cosmos 1975 3.8 22:36:58 10° N 22:40:21 44° NE 22:40:21 44° NE
Helios 1A 4.1 22:44:35 37° NW 22:44:35 37° NW 22:47:22 10° NNW
CZ-4C R/B 3.0 22:37:43 10° NW 22:44:48 79° NE 22:53:08 10° SE
NOSS 3-3 (A) 3.8 22:47:38 65° SSE 22:48:18 71° SE 22:54:55 10° NE
NOSS 3-3 (C) 3.8 22:47:45 65° SSE 22:48:25 70° SE 22:55:01 10° NE
Cosmos 1733 Rocket 3.6 22:44:42 10° NNW 22:48:08 52° NNW 22:48:08 52° NNW
Meteor 1-19 Rocket 4.2 22:50:22 62° SE 22:51:03 70° E 22:56:31 10° NNE
CZ-2D R/B 2.6 22:45:44 10° NNE 22:51:07 51° E 22:52:02 46° SE
ATLAS 2AS CENTAUR R/B 3.8 22:45:13 10° NW 22:52:27 46° NE 22:59:07 10° ESE
SL-16 R/B 2.6 22:51:23 43° SE 22:53:37 76° ENE 22:59:54 10° NNW
Cosmos 2082 Rocket 2.2 22:48:55 10° NNW 22:54:34 77° ENE 22:56:13 47° SE
Cosmos 1833 Rocket 2.8 22:50:48 10° NW 22:56:05 59° W 22:56:05 59° W
Cosmos 1340 Rocket 4.3 22:52:43 10° NNW 22:55:06 31° NW 22:55:06 31° NW
ADEOS II 3.5 22:54:05 10° NE 22:58:39 29° E 23:00:26 24° SE
Cosmos 2112 Rocket 4.4 22:54:21 10° NNW 22:59:38 62° ENE 23:01:42 36° SE
Meteor 1-29 4.5 23:06:59 10° NNE 23:09:24 31° ENE 23:09:24 31° ENE
Cosmos 1703 Rocket 4.1 23:11:59 46° ESE 23:12:21 48° E 23:16:32 10° NNE
ERBS 4.1 23:12:46 27° NNW 23:12:46 27° NNW 23:15:33 10° NE
Cosmos 1943 Rocket 3.9 23:10:27 19° SE 23:12:40 24° ESE 23:17:05 10° NE
Cosmos 1782 Rocket 4.5 23:09:11 10° N 23:13:31 46° ENE 23:14:54 34° ESE
Cosmos 1862 Rocket 3.8 23:15:36 56° WNW 23:15:36 56° WNW 23:19:38 10° N
CZ-4 R/B 4.5 23:11:08 10° N 23:15:54 44° WNW 23:16:19 43° W
SJ 16-02 1.8 23:17:22 50° WNW 23:17:22 50° WNW 23:21:39 10° NNE
Meteor 1-18 Rocket 4.2 23:16:57 58° SSW 23:18:09 80° WNW 23:23:55 10° N
IDEFIX/ARIANE 42P 4.5 23:14:11 10° NE 23:18:15 22° E 23:21:34 13° SE
Cosmos 2278 Rocket 2.3 23:19:30 54° WSW 23:20:39 68° WNW 23:26:19 10° NNE
Okean 1-7 3.3 23:21:48 55° ESE 23:22:10 58° E 23:26:22 10° NNE
ATLAS 5 CENTAUR R/B 3.0 23:22:59 10° NW 23:27:07 35° W 23:27:07 35° W
Landsat 4 3.8 23:25:02 10° NNE 23:28:33 68° E 23:28:33 68° E
USA 305 4.1 23:25:52 17° WNW 23:28:52 41° N 23:32:57 10° ENE
USA 234 4.1 23:24:49 10° ENE 23:30:46 36° SE 23:32:59 28° SSE
Cosmos 1680 Rocket 3.5 23:27:56 10° NNW 23:33:12 65° WSW 23:34:06 55° SSW
AQUA 3.8 23:30:45 10° NNE 23:35:33 81° ESE 23:36:34 55° S
NPP 3.6 23:31:20 10° NNE 23:36:46 85° WNW 23:38:17 49° SSW
Cosmos 489 Rocket 4.5 23:36:48 10° NNW 23:43:03 83° ENE 23:49:11 11° SSE
Cosmos 2369 Rocket 4.0 23:41:17 12° SSE 23:44:58 23° ESE 23:49:18 10° NE
COSMOS 2406 4.5 23:41:24 10° NW 23:44:55 24° W 23:44:55 24° W
Cosmos 1356 Rocket 4.3 23:42:27 10° N 23:46:28 48° ENE 23:49:10 19° SE
USA 306 4.0 23:43:12 12° WNW 23:47:00 43° N 23:51:08 10° E
Helios 1B rocket 2.8 23:43:27 10° N 23:47:25 46° WNW 23:47:40 46° W
UNK 4.4 23:52:44 38° W 23:52:44 38° W 23:56:57 10° NNW
Spot 1 4.2 23:52:45 27° SSE 23:54:58 72° ENE 23:59:22 10° N
